BIKF

Keflavík International Airport

Airport
ICAO code
BIKF
IATA Code
KEF
Summary
ICAO Region
NAT
ICAO Territory
Location

Keflavik, Suournes

Serving
Keflavik
Elevation
171 ft
Coordinates
63° 58' 36" N , 22° 36' 53" W
KCC
Airport WX
Volcanic Ash
Metar
BIKF 201530Z 16026G37KT 6000 -RA OVC004 08/08 Q1005

Description

International civ/mil airport serving western Iceland.

Climatology

Subpolar Oceanic climate (Köppen climate classification Cfc) - uniform precipitation distribution, temperatures are moderated by the proximity of the ocean and warm currents - cool summers and comparatively mild winters.

Runways

Designator Length Width Surface Rops
2/20 3054 60 ASP Yes/Yes
11/29 3065 60 ASP Yes/Yes

Airport map

Aerial View

SKYbrary Partners:

Safety knowledge contributed by: